Location: ??? ???
(33.4974°N, 35.4618°E)
Time: 11:35:54
(UTC+00:00)

Cosmos 2219 - Pass Details

Date: 29 October 2020
Orbit: 832 x 862 km, 71.1° (Epoch: 27 November)

Event Time Altitude Azimuth Distance (km) Brightness Sun altitude
Rises 16:26:00 0° 331° (NNW) 3,442 6.7 -20.8°
Reaches altitude 10° 16:28:33 10° 326° (NW) 2,502 6.0 -21.3°
Maximum altitude 16:34:00 45° 255° (WSW) 1,153 4.3 -22.5°
Drops below altitude 10° 16:39:25 10° 184° (S) 2,483 5.7 -23.6°
Sets 16:41:57 0° 178° (S) 3,413 6.4 -24.1°
